Regional Weather Roundup
Issued by NWS

Home | Current Version | Previous Version | Text Only | Print | Product List | Glossary Off
Versions: 1 2 3 4 5 6 7 8 9 10 11 12 13 14 15 16 17 18 19 20 21 22 23 24 25 26 27 28 29 30 31 32 33 34 35 36 37 38 39 40 41 42 43 44 45 46 47 48 49 50

000
ASUS43 KLMK 260302
RWRKY
KENTUCKY REGIONAL WEATHER ROUNDUP
NATIONAL WEATHER SERVICE LOUISVILLE KY
1100 PM EDT THU MAY 25 2017

NOTE "FAIR" INDICATES FEW OR NO CLOUDS BELOW 12,000 FEET
WITH NO SIGNIFICANT WEATHER AND/OR OBSTRUCTIONS TO VISIBILITY.

KYZ001>023-026-027-061>063-070>075-260400-
WESTERN AND SOUTH CENTRAL KENTUCKY

CITY           SKY/WX    TMP DP  RH WIND       PRES   REMARKS
PADUCAH        PTCLDY    65  49  56 S3        29.80R
HENDERSON      CLEAR     60  57  89 S3        29.80R
OWENSBORO      CLEAR     63  55  75 SW5       29.81R
HOPKINSVILLE   CLEAR     62  53  72 S6        29.83R
BOWLING GREEN  CLEAR     63  54  72 SW3       29.83R
GLASGOW        NOT AVBL
$$

KYZ024-025-028>034-038-045-046-053-260400-
NORTH CENTRAL KENTUCKY

CITY           SKY/WX    TMP DP  RH WIND       PRES   REMARKS
LOUISVILLE/SDF PTCLDY    63  57  81 CALM      29.79R
LOUISVILLE/LOU CLEAR     60  57  89 CALM      29.80R
FORT KNOX      PTCLDY    60  56  87 SW5       29.79R
$$

KYZ035>037-039>044-047>052-055>060-089>105-260400-
NORTHEAST KENTUCKY

CITY           SKY/WX    TMP DP  RH WIND       PRES   REMARKS
LEXINGTON      CLOUDY    61  53  75 W7        29.80R
COVINGTON      CLOUDY    61  57  87 W5        29.76R
FRANKFORT      CLEAR     60  52  74 W3        29.78R
$$

KYZ054-064>069-076>088-106>120-260400-
SOUTHEAST KENTUCKY

CITY           SKY/WX    TMP DP  RH WIND       PRES   REMARKS
JACKSON        CLOUDY    58  56  93 CALM      29.80R FOG
LONDON         CLOUDY    60  55  83 SW5       29.83R
SOMERSET       CLEAR     55  55 100 CALM      29.85R
MIDDLESBORO    CLOUDY    62  55  79 CALM      29.86R
MONTICELLO     CLEAR     54  53  97 W8        29.86R
$$





USA.gov is the U.S. government's official web portal to all federal, state and local government web resources and services.